Wind_Speed
25 25 25 24 24 24 24 24 24 24 25 25 25 25 24 24 25 26 27 29 30 31 31 32 31 31 30 30 31 32 32 33 32 35 33 21 18 23 23 21 21 22 20 18 17 16 16 16 18 20 20 21 21 21 21 20 22 24 24 25 26 24 23 21 16 14 8 6 7 6 6 4 5 13 18 18 19 16 14 15 15 16 17 12 8 9 11 15
26 26 25 25 25 24 24 25 25 25 25 25 25 25 25 25 25 25 27 28 29 30 31 32 32 32 31 31 30 31 32 33 34 36 27 18 23 27 25 23 23 22 20 19 18 17 17 18 20 21 21 22 22 21 21 21 23 26 26 27 28 24 21 20 17 13 7 5 5 6 8 3 4 12 17 17 18 16 15 16 16 16 16 13 11 12 14 16
27 27 26 26 25 25 25 25 25 26 26 26 26 25 25 26 26 26 26 27 29 30 31 32 32 32 32 31 30 30 31 32 35 32 22 23 30 29 26 25 24 23 21 20 20 19 19 21 23 22 22 23 23 23 23 23 24 26 27 29 28 23 20 20 18 11 7 3 1 5 8 5 1 9 15 15 15 14 14 14 15 17 16 14 14 14 16 18
27 27 27 26 26 26 26 25 26 26 26 26 26 26 26 26 26 27 27 27 28 29 31 32 32 32 32 31 31 30 30 32 34 28 23 31 33 28 27 25 26 26 23 22 23 22 22 23 24 24 24 24 24 25 26 26 25 26 28 30 27 23 20 20 17 11 7 3 4 4 5 4 3 11 14 13 13 12 12 12 11 13 13 14 15 15 17 19
28 28 27 27 27 27 26 26 26 26 26 27 27 27 26 26 27 27 28 28 28 29 30 31 32 32 32 31 31 30 29 30 30 27 28 33 33 29 28 27 28 28 25 25 26 25 24 24 25 25 25 25 25 27 29 28 26 28 30 30 26 23 21 20 16 12 7 5 5 4 4 3 4 12 15 14 12 11 11 10 9 8 9 12 14 15 17 18
28 28 28 28 28 28 27 27 27 27 27 27 27 27 27 27 27 28 28 28 29 29 29 30 31 31 31 31 31 31 30 27 23 24 29 32 31 29 28 29 30 29 28 28 28 28 26 26 26 26 26 25 26 28 28 28 27 29 30 29 27 24 21 19 16 12 9 8 5 2 2 3 3 10 13 12 10 9 10 9 9 8 8 10 12 12 13 15
29 29 29 29 29 29 28 28 28 28 28 28 28 27 27 28 28 29 28 29 29 29 29 30 30 31 31 31 32 32 34 29 21 20 23 27 30 29 29 30 32 31 30 29 30 30 28 28 28 27 26 26 26 27 27 27 28 29 30 28 26 25 22 18 16 14 12 10 6 2 3 3 3 6 10 11 10 10 10 11 12 11 11 11 11 10 11 13
30 30 30 30 30 30 30 30 30 30 29 29 28 28 28 28 28 29 28 29 29 29 30 29 30 31 30 32 32 35 36 28 22 23 21 22 26 28 30 30 32 32 30 30 29 29 29 29 29 27 27 26 26 26 26 27 29 31 31 26 23 24 22 18 15 15 14 12 8 5 5 6 4 6 11 12 12 12 13 14 16 14 14 13 11 10 11 14
31 32 32 32 32 32 32 31 31 30 30 29 28 28 28 28 28 28 29 29 29 29 29 29 31 30 31 32 33 38 33 20 22 28 25 22 21 25 29 31 33 33 32 30 29 30 30 29 28 27 26 24 25 26 25 27 29 29 29 25 21 22 21 17 15 15 14 13 10 7 7 10 8 6 10 13 12 13 15 17 17 15 15 14 12 11 13 15
32 32 33 33 33 33 33 32 32 31 30 29 28 28 27 28 28 28 29 28 29 29 29 30 30 30 33 32 35 38 26 20 28 30 27 25 21 22 27 32 35 34 33 32 31 31 30 27 26 26 26 26 26 25 25 27 28 26 26 25 22 21 21 17 17 16 14 14 12 10 9 11 12 8 8 12 14 13 15 19 18 16 16 14 13 14 15 16
32 31 32 33 33 33 33 32 32 31 30 29 28 28 27 27 27 28 28 28 29 29 29 31 30 32 33 33 39 32 20 24 30 29 31 29 25 23 25 32 36 36 35 34 33 31 29 26 26 28 27 27 27 25 26 28 28 24 23 25 24 22 21 18 18 16 14 15 13 11 9 10 14 13 9 10 13 13 14 17 18 17 16 15 15 16 17 17
32 30 29 30 31 31 32 31 31 30 29 28 28 27 27 27 27 27 27 27 28 28 29 30 31 33 33 39 37 20 18 29 29 30 34 32 28 27 26 29 33 35 35 35 34 31 29 27 28 30 28 27 27 24 24 28 29 25 23 24 23 22 21 19 18 17 15 15 13 11 12 12 14 14 13 11 9 12 14 15 17 17 16 16 16 16 18 18
31 29 27 28 29 29 30 30 30 29 28 27 27 26 26 26 26 26 26 27 27 28 29 30 32 33 36 42 28 15 26 33 30 33 35 34 32 29 27 27 29 33 35 35 34 32 30 30 31 31 28 27 28 24 22 27 30 27 23 23 21 21 23 21 18 18 17 16 14 11 16 17 15 15 16 14 11 11 15 15 16 16 16 17 16 16 18 18
29 29 27 26 27 27 27 28 28 28 27 26 25 25 25 25 25 25 25 26 26 28 29 30 32 32 39 39 22 22 34 33 33 34 33 35 35 32 30 26 26 30 32 33 33 33 32 32 32 31 31 30 28 26 22 23 29 28 24 23 22 21 24 23 20 20 18 17 15 13 18 18 15 18 18 16 15 11 14 17 16 16 16 17 16 15 17 17
27 28 26 24 25 25 25 26 27 26 26 25 24 23 23 23 24 24 25 25 25 27 28 30 31 32 40 34 22 29 33 32 33 28 27 34 34 35 33 28 27 28 30 31 32 33 33 33 35 34 34 32 28 26 25 22 25 27 24 22 23 22 23 22 21 21 18 16 16 15 18 17 15 18 17 16 16 13 14 16 17 16 16 16 16 16 17 17
26 26 25 23 23 23 24 24 25 24 24 23 22 22 22 22 23 23 23 23 25 26 27 29 30 32 36 28 24 31 30 29 28 24 29 35 36 36 34 33 33 29 28 29 31 33 33 33 35 35 34 33 31 27 26 25 24 26 26 23 21 22 22 21 22 22 18 15 17 20 19 16 15 17 16 16 16 15 16 17 18 17 15 16 16 16 18 18
25 24 24 23 22 22 22 23 23 22 22 21 21 20 20 22 22 21 22 24 25 25 27 29 30 33 32 23 21 26 27 28 28 29 34 36 36 35 34 36 35 32 30 29 31 33 33 31 32 35 35 35 35 30 25 27 28 27 27 26 21 19 20 20 21 20 18 15 17 21 21 17 15 17 17 17 18 18 18 18 20 19 16 16 16 16 17 17
24 23 23 22 21 21 22 22 22 21 20 20 19 19 19 21 21 20 22 24 25 26 28 28 29 30 26 20 21 21 25 28 29 32 36 36 35 35 36 35 33 33 32 31 32 33 32 30 30 34 37 38 38 35 31 32 35 31 26 28 25 21 20 20 20 18 18 17 16 20 23 21 19 18 16 16 18 20 19 19 21 20 18 17 17 16 15 16
23 22 22 22 21 20 21 21 20 19 19 18 17 17 18 19 19 21 22 25 26 27 26 25 27 27 20 16 20 24 26 27 29 32 36 37 35 37 38 35 34 35 34 34 33 34 33 29 30 35 41 44 43 42 40 37 35 30 25 27 27 23 21 21 21 18 16 17 19 21 23 22 22 23 20 16 17 18 17 20 23 22 21 20 18 16 14 14
22 21 21 21 21 20 21 20 19 19 18 15 15 15 16 18 19 21 23 27 28 26 26 26 27 28 21 14 16 25 27 26 29 32 36 37 35 38 38 36 36 36 36 36 34 34 34 32 37 43 45 46 45 42 40 36 31 27 24 25 25 23 22 22 21 19 16 16 19 22 22 20 21 25 24 19 16 18 20 23 26 25 25 23 19 16 15 14
22 21 21 21 21 20 20 19 17 17 16 13 12 13 15 17 18 21 24 28 28 25 26 27 29 29 21 17 18 23 25 26 29 32 37 39 38 39 40 39 38 38 39 37 32 32 34 36 42 45 43 43 43 41 37 35 32 27 23 22 23 24 23 22 20 20 18 17 19 21 23 23 22 24 25 22 19 19 21 25 28 28 27 25 20 17 16 16
22 21 22 21 20 20 19 18 16 16 14 11 10 12 14 16 18 21 25 27 24 23 26 27 29 29 19 18 22 24 25 27 28 32 38 41 42 42 41 41 41 40 38 36 34 34 36 40 42 40 39 40 40 39 37 35 34 30 25 22 23 24 24 21 19 19 18 18 20 20 22 25 23 23 25 24 23 19 19 22 26 28 28 27 23 19 18 18
22 21 21 20 19 20 20 17 16 16 13 9 9 11 13 15 19 21 23 27 22 18 24 26 27 25 16 18 24 26 28 28 27 33 39 42 44 43 41 42 41 39 38 39 40 38 35 37 40 38 37 39 38 38 37 36 35 33 29 26 26 25 22 19 17 17 16 17 20 19 22 26 24 23 25 25 25 22 19 19 22 26 28 27 25 21 19 20
23 20 20 19 19 19 20 17 15 15 11 9 11 11 11 14 17 19 21 27 24 14 15 20 23 20 13 17 25 29 30 28 29 34 41 45 45 44 42 41 40 38 38 39 40 39 34 31 37 39 37 38 38 37 38 37 36 36 33 30 28 26 22 20 16 14 15 16 19 18 19 26 28 24 24 25 24 23 22 21 24 28 30 31 29 25 22 21
23 21 20 19 18 19 19 17 15 15 11 12 13 12 12 14 15 17 17 22 23 15 9 15 19 15 13 21 28 30 30 31 31 34 42 47 47 46 43 40 40 40 38 36 37 40 36 29 33 39 38 39 38 39 39 38 37 36 35 33 29 26 24 22 17 11 11 13 16 15 10 19 29 27 26 27 26 26 26 26 28 31 33 35 34 29 26 24
23 21 20 19 18 19 20 18 15 14 12 15 15 13 13 13 13 14 15 17 21 15 8 12 13 11 15 21 27 28 28 31 32 34 43 48 46 46 43 41 41 40 37 35 34 38 38 32 29 34 39 38 37 38 39 37 35 35 37 35 30 28 26 24 19 13 9 9 11 11 7 14 25 26 25 28 30 30 30 30 31 32 33 36 36 31 28 26
23 21 21 20 18 20 21 18 15 13 14 17 16 15 13 11 11 12 11 11 12 7 3 6 8 8 11 15 25 30 23 24 30 35 43 49 47 45 43 42 42 39 35 34 32 33 37 36 29 28 34 38 39 39 38 36 33 34 37 34 30 30 28 25 22 17 15 15 15 15 13 16 24 24 21 23 30 32 32 33 35 36 34 34 37 33 29 28
23 22 22 21 18 20 20 17 14 13 16 19 18 17 15 11 10 10 6 4 3 2 4 3 8 6 6 10 24 32 19 16 29 36 41 47 48 46 44 43 41 39 36 35 33 29 31 37 34 28 29 37 42 41 37 35 32 33 35 32 30 30 26 24 21 19 20 18 20 23 17 11 18 25 19 18 29 33 32 35 37 36 34 34 37 34 31 30
21 23 24 22 20 20 21 17 14 15 18 20 20 19 15 12 10 8 3 2 2 2 3 3 7 4 5 11 23 29 18 14 24 33 38 43 47 45 44 43 40 38 37 36 34 27 25 33 36 31 30 35 41 40 36 34 31 32 32 30 30 28 22 18 15 17 18 14 20 27 19 9 13 24 21 18 29 34 33 34 33 31 30 34 37 35 32 31
19 22 24 23 21 20 20 17 14 16 20 21 21 19 15 11 9 5 4 4 2 3 3 3 6 4 4 13 25 26 18 15 20 29 34 37 43 42 37 38 36 35 37 36 34 31 24 24 30 34 34 33 36 37 36 34 30 29 29 28 28 25 19 15 15 18 13 10 24 29 20 13 9 16 22 22 27 30 31 33 32 30 30 34 37 35 32 31
18 22 24 22 21 20 19 16 14 17 20 22 22 19 16 12 9 5 3 6 3 4 4 1 4 8 6 11 25 28 21 19 23 29 31 32 38 38 31 31 32 30 34 36 35 35 27 19 24 33 34 30 29 33 36 33 31 29 25 25 23 16 13 12 15 17 7 7 24 26 17 17 13 12 19 23 25 27 29 32 32 31 32 34 36 34 33 32
17 22 25 23 21 20 18 14 14 17 20 23 22 20 18 11 9 12 6 1 1 3 7 4 2 6 7 10 22 29 24 20 25 30 30 30 34 39 35 32 33 28 26 32 32 33 32 24 21 25 30 31 27 28 33 32 32 32 26 23 17 6 6 8 7 8 7 11 21 17 9 14 19 19 21 23 26 28 28 30 31 31 32 33 34 34 34 34
16 21 25 24 21 19 17 15 15 18 22 24 22 21 19 9 6 18 13 3 2 4 6 2 4 3 7 12 21 28 25 20 25 27 27 28 29 34 35 30 33 29 21 27 30 28 30 27 24 24 27 33 31 28 32 33 34 36 33 27 16 6 4 5 4 1 4 15 21 16 7 8 14 19 22 24 28 30 31 31 30 32 33 32 33 34 36 37
14 19 23 22 21 18 15 16 17 18 22 23 23 22 19 10 5 10 12 8 4 3 3 4 9 6 8 12 19 27 26 21 25 24 22 27 25 27 33 30 31 30 21 22 29 28 23 21 27 29 26 30 34 33 30 30 32 35 37 33 24 16 8 3 5 3 3 8 14 14 8 4 7 11 18 26 29 30 33 33 32 35 36 33 34 37 38 39
12 17 21 18 18 18 15 16 18 19 22 22 23 23 19 16 10 4 6 6 4 3 3 6 7 7 9 10 14 24 26 21 24 24 18 23 26 27 32 33 32 31 24 20 25 29 25 22 27 28 25 27 31 33 30 25 26 30 33 34 34 30 17 4 5 10 9 5 5 9 7 4 7 9 14 24 28 30 33 36 36 39 41 38 37 39 39 40
9 16 19 13 12 15 16 17 16 17 21 22 23 25 23 21 15 5 7 5 5 7 6 7 4 5 8 11 12 19 25 21 21 24 17 18 24 26 29 33 32 31 28 22 20 23 21 22 27 26 24 27 28 31 34 28 23 24 30 36 38 34 22 10 4 9 10 5 4 6 4 5 7 8 13 21 24 27 31 37 41 41 42 42 40 40 40 40
8 12 14 10 9 12 14 16 15 15 20 22 23 26 26 25 19 11 10 4 6 10 9 8 6 6 5 10 12 14 21 22 20 22 19 15 19 26 30 31 31 31 29 23 20 19 16 18 26 28 24 26 27 26 31 33 25 23 29 35 32 26 24 21 8 3 4 3 4 5 5 8 7 6 12 18 20 23 27 34 41 42 42 42 42 42 41 40
6 9 11 10 10 12 12 13 14 15 18 22 25 24 24 26 24 20 17 7 5 10 10 9 8 9 8 5 8 12 18 20 18 21 20 16 15 23 31 31 29 30 29 24 19 17 15 13 19 28 26 23 25 24 26 33 31 26 25 27 25 20 21 24 14 2 4 3 2 2 6 11 12 12 16 19 20 23 27 32 38 40 42 42 43 43 42 41
2 6 8 6 6 11 12 11 12 15 20 23 23 21 21 25 25 22 22 15 6 8 8 8 7 8 9 6 6 10 17 18 17 21 21 18 15 18 28 32 29 30 29 26 21 15 16 12 9 21 28 21 23 28 29 30 33 33 27 25 29 25 20 23 18 7 5 4 1 1 3 9 15 19 20 19 21 24 27 32 36 38 40 42 43 43 42 41
7 5 3 3 3 7 10 11 13 16 20 22 21 20 20 22 21 19 21 19 10 5 5 6 6 6 7 5 5 11 14 13 17 23 20 19 19 16 23 30 29 30 30 27 23 16 15 14 6 12 26 26 23 29 32 28 30 36 33 28 30 27 19 19 20 14 6 4 3 3 1 8 16 20 20 20 20 23 26 30 33 37 40 41 41 42 42 42
8 5 1 1 2 7 9 10 13 16 20 21 22 20 17 16 16 16 19 18 10 4 4 5 6 5 6 4 2 8 11 9 13 22 20 19 22 19 20 26 27 28 30 30 29 22 17 17 12 8 18 26 25 24 27 27 26 31 35 33 32 28 22 14 12 17 13 4 5 6 2 8 17 20 20 20 20 21 24 28 33 37 39 40 42 42 42 41
7 5 3 3 3 6 9 11 12 14 16 17 17 15 13 13 15 15 15 15 11 5 3 5 6 5 5 3 3 3 7 11 13 15 19 19 20 19 19 23 26 26 29 31 32 28 21 17 15 11 10 18 20 20 23 25 25 28 31 33 32 30 29 19 8 14 17 6 5 7 2 6 16 21 20 20 20 20 22 26 32 37 40 42 43 43 41 41
7 5 3 5 5 5 10 13 12 12 12 11 11 10 10 11 12 13 11 9 8 3 3 6 6 4 4 3 3 3 3 12 14 11 13 15 15 16 16 19 24 26 28 29 30 31 26 19 15 11 8 10 13 15 20 22 23 26 29 31 31 30 31 26 15 14 18 13 8 6 0 5 16 22 22 21 20 20 22 26 31 37 42 43 43 44 44 43
7 3 2 6 7 8 13 14 13 13 9 7 8 8 9 11 10 12 11 6 4 4 6 6 4 3 4 2 2 5 6 10 13 10 8 8 8 11 13 16 20 25 29 29 30 32 28 22 18 7 1 5 8 9 13 17 20 24 28 30 29 28 29 29 21 12 13 18 18 10 3 7 17 23 25 25 23 24 25 28 32 37 43 45 44 44 45 44
6 3 4 8 4 9 15 14 13 13 8 5 6 6 7 10 11 13 11 6 3 7 9 4 0 1 6 3 3 8 10 7 9 10 7 6 7 8 10 12 15 20 28 28 27 29 26 23 22 12 4 4 4 3 8 15 19 20 25 27 26 25 27 27 22 14 9 14 20 16 9 11 19 25 28 27 25 27 31 33 35 37 42 45 45 44 44 43
7 6 6 8 3 9 15 15 13 12 8 4 4 5 6 9 11 12 11 5 3 9 10 1 3 0 3 6 5 8 10 6 7 9 9 7 8 10 10 10 11 15 24 26 24 26 26 24 23 19 12 7 2 3 9 14 15 16 19 22 23 23 24 23 20 17 13 12 16 17 16 17 22 26 29 30 29 29 34 37 36 36 39 41 41 41 42 42
7 8 8 9 7 5 12 15 12 8 7 6 5 6 7 7 8 9 9 5 5 8 6 1 4 4 4 6 7 7 8 8 6 7 10 9 7 10 12 10 9 13 22 25 22 22 24 25 24 20 15 11 7 7 10 11 12 14 15 16 17 18 20 22 20 16 14 13 13 16 18 19 22 26 28 30 31 31 34 38 38 37 39 39 39 40 41 40
8 9 9 10 9 3 5 12 12 9 8 9 7 6 4 4 6 6 5 4 4 8 5 4 6 7 7 6 4 3 4 8 7 7 9 10 7 10 13 12 13 16 20 21 19 20 22 22 23 21 16 14 12 10 10 9 10 11 12 12 13 14 17 20 21 17 14 11 11 15 19 19 19 23 27 28 30 31 34 38 41 41 42 42 41 41 40 38
9 8 11 16 15 4 6 11 12 10 9 8 6 4 1 3 6 4 5 1 3 8 7 5 6 8 8 6 4 4 3 6 8 7 8 8 7 10 14 14 14 17 20 18 16 19 20 17 21 24 18 14 14 12 13 12 7 7 9 10 11 13 14 15 17 18 16 12 8 10 16 19 16 17 26 32 32 33 36 39 42 43 43 43 42 41 39 36
11 10 14 19 16 7 6 9 9 9 8 6 4 3 1 3 5 4 5 3 3 5 4 2 2 3 5 5 4 4 4 5 8 7 7 8 7 10 14 14 14 16 19 17 13 17 19 16 18 22 16 13 14 13 13 15 10 5 5 7 9 12 14 15 15 16 17 16 11 9 14 20 17 14 23 34 36 36 37 38 41 41 41 40 38 36 33 31
9 9 14 19 17 12 6 6 8 8 7 5 3 3 3 4 3 4 3 3 3 2 0 2 2 3 4 3 4 5 5 5 6 6 7 8 7 9 12 13 14 14 16 16 14 16 18 16 19 21 14 12 13 12 12 15 14 9 7 6 6 8 12 16 18 18 18 18 15 13 14 18 18 16 19 27 34 37 37 38 39 38 35 33 32 30 28 26
8 7 13 18 15 12 9 7 7 5 5 3 4 6 6 5 3 5 4 2 2 2 3 4 5 6 6 5 5 6 7 8 8 7 7 7 8 10 11 12 14 14 15 16 15 17 19 18 20 21 14 12 13 12 12 13 9 7 8 8 7 8 11 16 19 20 21 22 19 16 16 17 19 20 20 23 29 33 35 36 36 34 32 30 28 25 24 22
Wind_Direction
284 284 283 283 282 282 282 282 281 281 280 279 278 275 272 269 266 265 263 261 260 258 256 255 253 252 251 249 247 246 244 243 242 242 242 236 237 237 231 226 226 226 221 217 214 212 211 207 208 210 209 211 212 211 208 206 203 204 209 214 220 218 211 208 195 185 176 148 139 77 62 129 183 201 201 207 211 219 226 210 204 206 207 211 195 180 186 191
284 284 284 284 283 283 282 282 282 281 280 280 278 276 274 272 268 265 263 261 260 259 256 254 253 252 251 250 248 247 244 243 242 242 241 234 232 232 228 223 224 225 218 215 213 209 209 208 210 211 209 210 209 208 207 206 206 208 212 218 224 221 212 201 187 184 183 150 135 71 59 93 193 210 209 212 214 213 209 193 186 196 202 203 185 171 177 186
284 284 284 284 284 283 283 282 282 281 281 280 278 277 275 273 270 267 264 261 260 259 257 255 253 252 251 251 250 248 246 244 244 242 237 231 231 227 224 222 222 224 216 211 211 207 207 208 210 211 210 209 206 204 206 206 208 211 215 223 227 222 214 198 185 186 197 186 52 50 69 62 280 224 217 217 217 209 209 205 194 195 203 206 190 173 175 182
283 283 284 284 284 284 283 283 282 281 281 280 279 278 275 273 271 268 265 262 260 258 258 257 255 252 251 250 250 249 248 247 246 242 230 229 231 225 221 220 221 222 214 208 210 208 207 208 210 210 210 210 205 204 206 206 208 212 218 225 227 224 215 195 189 193 205 236 334 12 67 41 272 226 222 221 218 210 219 234 226 215 211 210 199 183 178 182
283 284 284 284 284 283 283 283 282 282 281 280 279 277 276 274 271 269 266 263 261 258 257 256 256 254 252 250 249 248 247 249 248 240 230 229 231 225 219 217 220 220 212 208 209 209 209 210 210 210 211 209 207 208 209 206 207 213 218 226 226 225 213 193 196 203 210 249 298 336 41 13 234 217 225 225 228 238 244 241 230 224 214 212 209 192 180 183
285 284 284 284 284 284 284 283 282 282 280 280 279 277 276 273 271 268 266 264 261 259 257 256 255 254 252 249 248 246 243 244 245 239 234 231 230 226 220 217 219 219 213 209 210 210 209 210 211 212 211 209 209 211 210 206 209 216 219 224 226 224 210 192 199 207 224 240 248 302 62 0 245 207 218 217 222 247 249 224 202 206 209 208 209 199 188 191
286 285 285 284 284 284 284 284 284 283 281 280 278 278 275 273 271 268 266 264 261 260 257 256 255 253 252 249 247 245 241 236 235 238 237 234 230 225 220 217 218 219 215 211 210 211 210 211 213 213 213 211 211 213 212 207 210 219 220 221 225 224 211 196 201 210 224 224 214 214 196 276 280 191 194 192 197 212 216 204 196 202 203 198 198 196 197 202
286 286 285 285 284 284 284 284 284 283 282 281 279 277 275 273 270 267 265 263 261 260 258 256 255 253 251 249 246 245 242 235 234 239 237 235 229 222 219 216 218 218 217 215 213 214 214 213 214 214 215 213 212 214 212 208 211 219 220 217 220 224 215 204 207 207 213 211 205 211 216 252 257 179 182 187 193 198 201 201 197 198 196 193 190 190 195 198
285 285 285 285 284 284 284 284 283 282 282 280 279 277 274 272 268 267 264 263 261 259 258 256 254 253 250 248 246 245 242 230 228 231 229 230 224 218 217 213 214 216 217 216 214 216 216 214 214 216 218 216 215 216 212 209 212 219 222 217 216 219 216 212 207 198 206 210 212 226 236 258 256 195 184 185 186 190 196 199 197 194 193 193 189 187 191 193
282 283 283 283 283 283 282 282 282 281 280 279 278 276 274 271 268 266 263 262 260 258 257 255 254 252 250 249 247 246 241 222 221 223 221 223 219 214 214 212 210 209 212 214 214 215 216 214 213 217 221 220 219 217 212 211 212 216 222 219 213 211 209 211 203 196 210 211 215 236 239 258 259 237 203 177 171 181 193 195 194 193 193 196 190 184 186 190
282 281 280 280 280 280 280 280 280 279 279 279 277 275 273 270 267 264 263 261 259 258 256 254 253 251 251 249 246 247 241 226 222 220 220 219 216 212 212 213 211 207 207 210 213 215 214 212 212 216 220 221 219 215 213 212 212 213 218 219 214 209 208 209 205 203 216 212 213 233 235 257 260 249 233 192 171 171 189 197 193 192 196 198 193 185 186 190
285 283 280 278 277 278 278 278 278 278 277 277 276 274 272 269 267 263 262 260 259 258 256 254 253 251 250 247 246 246 237 230 222 218 219 214 211 209 209 213 212 209 206 206 209 211 212 210 211 215 217 219 217 214 216 214 214 213 215 224 220 216 218 211 210 212 214 209 205 222 237 246 251 244 237 228 199 171 184 204 197 194 199 199 198 193 190 192
286 286 282 278 277 277 276 276 276 276 276 275 275 273 271 269 266 262 260 258 257 256 255 254 252 251 250 248 246 233 231 230 221 217 216 211 207 204 205 210 212 211 207 205 204 205 208 209 211 214 215 219 216 213 216 214 216 215 215 231 229 227 227 212 210 216 210 203 194 214 236 233 235 240 236 237 233 192 185 201 202 201 203 202 202 200 194 193
286 286 283 278 277 277 276 275 275 275 275 274 273 272 270 267 264 261 258 256 255 254 253 252 252 251 251 250 241 229 232 228 222 218 213 212 208 204 204 205 210 211 208 205 202 200 202 206 211 212 214 219 217 214 216 213 217 218 217 230 233 235 230 211 210 217 208 201 194 210 232 229 234 241 237 240 245 224 193 196 206 208 207 207 204 201 199 196
284 285 284 279 277 277 276 275 275 274 274 273 273 271 268 265 262 258 255 254 253 253 252 252 252 252 253 252 237 233 234 230 228 221 216 217 212 208 206 204 209 210 208 205 201 199 198 202 208 209 211 215 215 216 217 214 215 217 219 227 230 234 229 213 211 214 206 203 201 210 223 222 232 241 241 244 245 235 210 200 206 210 208 208 205 202 198 194
283 283 283 280 277 277 277 276 275 275 275 274 272 269 266 262 259 255 254 253 252 253 252 253 252 253 256 254 239 237 236 232 230 219 217 219 213 210 207 207 211 210 207 202 199 198 196 200 206 207 209 210 212 214 216 219 216 212 217 222 223 228 228 219 213 209 204 210 210 212 218 216 223 236 241 244 239 224 215 208 206 210 210 208 206 202 197 196
281 281 281 280 277 277 279 278 276 276 276 274 270 267 264 260 256 254 253 252 252 252 252 253 252 254 256 251 240 240 236 228 222 212 212 214 210 207 207 208 210 210 206 197 194 193 192 197 202 204 206 207 209 211 216 224 218 209 213 219 218 219 223 221 214 206 204 213 215 212 217 218 222 232 237 241 233 218 217 216 209 209 210 208 205 201 201 205
279 279 279 279 278 277 279 278 277 278 276 274 270 265 262 259 256 251 250 251 251 251 252 253 253 255 256 244 234 234 232 225 218 212 209 209 206 203 205 206 205 207 203 196 193 190 189 193 198 202 204 205 206 208 213 217 213 206 208 216 218 216 218 219 213 207 204 210 215 215 217 217 222 233 238 238 228 219 221 220 213 211 210 206 202 201 205 213
278 277 276 277 277 277 279 278 278 278 276 273 269 266 261 256 251 249 251 252 250 249 251 254 252 250 248 238 229 226 226 222 215 211 207 206 204 201 202 201 201 201 197 194 194 190 188 190 196 202 204 203 203 206 210 212 211 208 208 214 218 218 219 218 214 208 206 213 216 220 223 220 223 234 240 238 223 215 218 219 216 214 211 205 200 204 208 214
278 275 273 273 274 275 277 277 277 277 275 271 267 266 260 253 249 249 252 251 249 248 249 252 253 251 243 233 229 224 221 218 212 205 202 202 201 201 200 198 200 200 197 195 194 192 191 194 201 203 203 203 203 205 210 213 212 211 214 217 220 223 223 219 219 214 211 223 222 222 231 230 228 235 239 238 221 209 209 213 217 217 212 205 203 208 207 209
274 271 269 270 271 272 275 275 276 275 272 269 267 260 256 253 249 250 253 252 252 253 254 254 256 256 242 219 221 224 218 215 212 200 196 197 197 199 199 197 199 200 199 196 194 195 197 204 206 204 203 203 204 206 210 214 213 213 217 219 223 227 224 218 220 219 217 231 227 222 234 235 233 239 239 233 221 210 209 211 216 219 214 207 208 212 208 206
271 266 264 267 269 269 272 273 272 271 268 266 259 249 251 252 252 257 262 262 258 257 260 257 255 256 241 209 213 221 217 212 207 196 193 195 195 197 197 197 200 202 200 196 197 199 205 212 209 204 205 203 205 208 211 215 216 216 218 222 225 223 224 225 220 217 220 233 231 227 235 234 236 244 241 233 227 222 221 220 221 221 216 212 214 215 212 210
268 263 260 263 265 266 268 268 268 266 261 251 235 235 244 248 256 264 271 276 270 255 257 259 258 257 236 206 210 219 219 210 201 192 189 194 196 196 197 198 200 201 200 199 200 201 208 214 209 205 206 204 206 209 211 216 218 219 220 224 224 216 222 231 219 215 222 233 238 239 242 240 243 252 245 236 233 231 229 228 226 223 222 221 221 221 219 217
265 258 254 257 260 262 263 262 263 262 250 223 216 225 237 245 258 267 276 286 283 266 254 253 256 257 227 203 210 218 220 211 200 191 187 192 196 196 197 198 198 199 201 204 204 204 208 212 208 206 206 205 207 208 211 215 218 220 221 222 221 214 219 228 219 218 225 232 240 247 258 253 247 252 249 236 227 225 224 222 221 220 224 226 223 220 218 218
264 255 246 248 254 258 259 257 257 258 237 209 212 219 232 244 257 269 281 293 291 286 261 241 247 251 221 208 211 214 218 213 199 189 187 192 195 195 195 196 198 200 204 206 208 211 211 210 209 208 207 206 207 209 211 213 218 221 221 219 217 214 222 230 232 241 246 242 240 243 267 257 243 245 249 235 217 214 216 217 218 217 221 226 223 218 213 212
262 253 241 240 248 253 256 254 252 251 225 204 209 213 227 242 251 270 288 297 292 292 274 242 236 230 221 218 211 207 215 214 198 187 189 192 194 196 194 194 199 203 205 207 211 217 214 209 209 210 209 208 209 211 211 212 218 223 221 216 212 218 227 235 241 250 260 257 243 239 251 257 251 247 245 233 217 214 214 215 218 216 217 223 224 220 214 211
258 248 236 233 239 247 251 250 247 242 217 201 204 210 219 233 249 275 297 299 286 295 307 235 205 210 225 222 208 202 209 211 196 189 191 191 193 196 196 196 198 202 205 206 210 219 217 209 207 208 211 211 211 212 211 210 216 223 221 213 212 223 229 236 244 246 255 264 262 260 258 259 261 255 247 231 215 212 212 212 215 216 216 221 223 222 217 214
257 241 230 227 231 242 247 246 242 233 212 201 203 210 214 222 249 277 302 313 275 17 23 198 185 202 217 207 203 201 200 197 193 193 192 192 194 196 198 199 198 200 203 206 210 217 217 212 208 205 208 213 214 212 209 208 214 222 222 214 215 227 235 240 246 250 258 267 267 263 253 248 258 255 249 228 211 206 208 211 213 214 216 220 221 220 219 216
258 237 228 226 227 235 242 240 237 227 210 200 204 211 212 219 244 264 271 291 287 0 9 190 186 192 192 192 194 196 196 186 189 193 190 192 196 198 200 201 200 201 204 210 215 218 220 218 213 209 210 214 215 213 210 209 212 219 222 219 221 230 241 241 244 256 260 258 258 257 244 223 253 252 242 219 209 207 207 212 214 215 216 218 217 217 218 216
260 234 225 226 229 233 238 235 230 222 207 199 204 209 209 215 226 230 227 240 289 355 333 212 202 201 191 192 188 187 185 171 173 184 187 192 197 199 202 203 204 208 212 218 223 222 222 223 219 216 215 215 215 214 214 212 211 217 221 221 225 235 244 242 242 252 259 250 249 253 244 224 245 253 237 221 214 212 209 210 212 214 213 212 213 215 217 214
260 230 219 224 231 231 232 232 228 216 203 199 202 204 204 207 210 204 213 232 243 19 28 6 235 226 220 202 191 183 171 159 160 173 183 189 194 198 199 200 205 212 219 223 225 223 219 222 225 222 218 214 214 215 215 215 212 214 220 219 223 235 237 235 237 235 235 250 249 255 251 228 224 239 232 223 217 214 212 208 207 209 207 207 209 211 212 212
260 228 217 222 228 225 222 225 225 212 201 199 200 201 201 198 213 217 214 249 229 29 30 31 294 248 246 216 195 183 168 157 161 171 183 187 190 197 195 195 199 201 211 215 216 220 216 214 221 224 220 213 210 214 215 216 214 215 219 214 211 212 207 214 222 217 218 243 248 258 258 223 222 233 231 223 217 212 212 211 209 209 206 204 205 205 207 210
260 228 218 218 219 220 216 216 222 212 200 198 198 200 201 193 224 225 229 309 7 8 6 62 150 223 243 212 192 183 174 167 168 170 181 186 189 195 195 198 200 196 204 205 202 209 212 214 216 217 219 213 209 211 211 211 214 216 216 209 199 172 158 203 214 218 240 242 247 252 248 218 221 231 229 221 215 209 209 210 212 214 211 205 200 199 204 207
259 226 217 215 217 221 214 208 219 213 200 199 200 198 200 205 228 226 237 271 307 339 359 146 163 189 230 211 192 186 182 178 175 170 176 185 190 196 197 202 205 202 204 199 197 201 204 214 214 209 214 214 210 211 210 210 213 217 216 212 210 207 189 182 199 193 211 234 241 235 227 227 206 213 223 220 214 208 205 205 208 211 208 202 197 197 202 206
251 218 211 213 217 218 210 206 216 213 202 199 200 201 204 212 218 230 245 255 333 14 132 139 160 190 218 216 198 192 190 184 179 178 179 184 191 199 199 202 205 203 202 193 195 202 205 215 213 205 210 214 211 211 212 214 217 219 216 213 217 215 207 211 202 198 199 200 225 217 211 233 212 201 210 213 213 211 205 202 203 204 201 197 196 197 202 206
226 211 212 217 214 206 202 208 216 214 205 200 203 210 215 215 212 234 258 248 17 31 97 113 128 171 199 209 203 195 195 194 186 185 189 188 193 201 202 203 204 202 204 197 190 197 206 219 215 205 208 212 211 211 211 212 213 214 212 213 218 216 214 237 224 189 195 186 208 220 208 220 219 207 204 203 207 211 207 202 200 200 198 196 197 199 202 206
201 204 213 221 218 206 201 206 213 213 207 204 208 216 222 222 216 232 258 249 39 32 53 65 68 87 137 194 204 201 196 200 198 193 195 194 197 202 202 206 206 202 204 202 194 194 203 221 217 210 211 209 207 212 217 217 215 210 210 213 215 215 222 235 237 152 165 176 218 220 199 207 201 185 197 194 194 204 206 202 200 198 198 197 199 202 204 206
190 212 225 226 219 212 204 205 211 209 205 209 216 221 228 229 225 236 251 251 32 30 39 43 48 62 70 140 190 203 198 198 199 198 199 199 201 205 203 206 209 205 204 203 203 200 201 220 221 212 213 211 203 209 221 221 222 222 221 216 208 200 212 221 223 205 161 166 273 215 201 218 202 187 198 192 185 194 198 198 200 199 197 198 201 204 205 207
258 256 241 221 199 202 200 203 208 205 203 211 219 223 231 234 231 238 247 251 299 1 19 16 19 42 49 74 130 175 192 199 196 193 198 202 203 206 205 208 212 208 204 204 206 200 194 210 225 209 211 214 207 213 220 217 218 223 227 223 213 208 208 208 211 215 177 158 230 180 203 234 211 199 208 203 191 193 195 196 200 200 200 201 202 204 206 208
327 306 218 138 163 202 196 195 204 206 206 212 220 223 231 237 237 243 250 250 264 316 334 336 341 10 33 54 112 138 168 197 198 192 197 204 204 204 203 205 211 210 206 206 210 206 200 209 216 196 203 210 210 214 219 216 212 215 216 213 210 208 205 205 212 218 197 134 147 154 239 237 211 203 213 214 201 197 199 198 199 201 203 203 203 205 207 208
354 356 82 93 226 209 196 191 202 208 207 213 223 229 238 246 245 245 246 243 249 288 307 333 332 327 4 13 158 132 139 165 188 193 200 204 203 206 203 200 205 208 206 209 213 212 210 214 219 201 195 204 213 217 219 220 220 218 216 213 211 206 195 190 209 216 210 179 158 169 217 223 202 197 205 213 208 199 199 201 200 200 202 204 204 206 207 208
11 11 1 304 260 213 204 199 201 210 213 221 231 238 247 254 251 245 238 237 249 277 321 354 351 320 344 4 218 175 135 157 171 190 203 208 209 211 205 199 202 205 205 209 213 213 214 220 230 242 217 201 208 216 220 224 228 227 223 219 219 214 202 191 191 207 207 203 159 165 191 208 194 194 197 204 208 203 200 203 204 202 202 204 205 204 206 210
2 3 352 292 274 233 210 205 207 213 217 230 237 238 244 249 250 241 222 222 244 267 355 336 331 299 315 346 225 237 140 165 170 170 190 208 222 222 214 206 207 210 209 209 211 211 215 222 230 243 243 208 198 204 212 219 222 222 221 220 221 221 215 209 210 208 203 199 180 155 105 208 193 193 194 197 201 202 202 204 206 205 202 203 204 204 205 209
1 1 345 306 280 226 207 206 209 211 211 223 221 217 232 238 235 221 204 199 245 312 348 324 305 230 216 309 257 193 150 160 174 167 167 186 209 221 222 217 214 216 213 209 208 208 209 216 219 213 194 210 204 200 201 202 205 211 215 218 218 220 218 213 210 205 198 202 200 188 180 202 197 194 194 196 198 197 201 206 208 207 204 202 205 206 206 209
2 351 339 337 304 200 198 202 207 212 216 221 209 198 220 229 220 214 216 226 273 332 346 337 332 140 177 219 266 180 161 157 174 180 179 159 160 180 202 218 224 220 213 209 209 209 208 211 215 208 163 165 187 202 192 183 185 196 206 210 210 211 212 206 200 196 193 201 202 199 193 189 192 194 195 198 200 196 197 202 207 209 207 205 207 210 212 213
11 4 1 10 41 178 193 198 204 215 218 217 213 199 213 229 226 226 237 260 348 353 346 323 173 271 186 198 204 170 169 179 167 175 187 170 154 160 176 209 226 209 202 205 210 213 213 214 216 217 214 207 194 181 179 174 174 178 188 197 201 206 211 208 200 197 199 198 199 205 209 198 191 192 195 199 202 199 197 199 203 208 211 210 211 215 216 217
25 17 24 36 56 153 193 198 200 208 204 207 221 203 204 231 238 234 240 270 355 7 354 244 186 207 185 173 179 169 172 187 167 158 184 186 156 143 155 184 198 185 192 202 209 212 213 213 215 219 221 222 223 196 174 166 169 174 175 182 191 198 208 213 210 203 198 196 203 212 215 211 203 196 196 200 202 201 200 201 203 207 212 213 214 215 216 217
24 17 19 13 12 32 189 202 212 215 201 205 212 197 199 225 228 238 247 253 11 39 61 122 140 159 161 151 177 193 176 183 169 138 165 186 171 147 152 165 167 167 182 193 195 199 207 209 209 213 215 212 206 197 195 183 166 171 178 181 189 192 198 209 211 208 203 200 215 224 222 225 222 208 200 201 203 203 201 202 204 206 209 211 212 213 215 218
16 8 1 355 359 14 189 200 209 211 202 203 201 188 209 207 205 256 317 322 71 57 72 112 113 135 162 164 188 244 248 194 178 145 146 171 173 162 164 169 166 165 178 185 179 185 197 201 203 208 208 203 197 195 211 214 180 160 178 186 200 207 207 211 208 203 204 202 214 236 227 224 230 220 206 202 203 204 204 204 205 207 209 211 214 217 220 224
13 358 354 5 27 68 176 195 187 186 192 200 196 190 237 211 213 271 329 0 45 62 78 106 108 142 175 174 182 234 258 207 182 161 151 157 161 165 171 178 179 176 183 189 179 182 190 186 193 203 193 178 191 200 213 223 215 188 184 189 208 220 223 228 222 210 207 204 210 241 228 210 206 205 204 203 204 206 206 206 208 210 212 215 217 220 225 230
12 353 355 12 44 78 117 164 162 172 190 202 215 232 234 222 254 306 326 341 347 0 309 277 251 216 208 207 207 224 240 222 202 190 170 156 152 168 174 180 186 180 179 185 181 183 187 175 178 194 182 152 171 189 203 219 222 221 223 217 220 225 219 220 225 225 217 208 210 228 232 219 209 199 195 200 205 208 208 210 211 212 214 217 219 222 226 230
12 12 12 22 51 90 116 138 147 169 196 215 242 250 240 218 255 320 322 312 321 307 290 279 261 249 241 233 225 222 226 223 220 212 186 160 159 173 176 181 190 185 174 179 180 182 191 184 174 182 178 150 161 182 198 211 219 218 219 218 228 240 226 214 218 224 223 218 219 230 244 247 233 212 195 192 199 206 210 212 214 213 212 214 219 221 224 233
Height
3076 3075 3075 3074 3074 3073 3073 3073 3072 3072 3071 3071 3071 3071 3071 3070 3070 3070 3070 3070 3070 3070 3071 3071 3072 3072 3073 3074 3074 3076 3077 3078 3079 3079 3081 3090 3093 3090 3091 3093 3093 3094 3096 3098 3099 3100 3101 3102 3102 3103 3103 3104 3105 3106 3108 3109 3109 3109 3109 3109 3109 3110 3111 3113 3115 3116 3116 3116 3117 3118 3118 3118 3119 3120 3121 3121 3123 3124 3125 3126 3127 3128 3130 3131 3133 3135 3136 3136
3074 3073 3072 3072 3071 3070 3070 3069 3069 3069 3068 3068 3068 3068 3068 3067 3067 3067 3067 3067 3067 3067 3067 3068 3068 3069 3070 3071 3071 3073 3074 3075 3075 3075 3083 3090 3088 3086 3088 3090 3091 3092 3095 3096 3098 3099 3100 3101 3100 3101 3102 3103 3104 3105 3106 3107 3108 3107 3108 3107 3107 3109 3111 3113 3115 3115 3115 3116 3116 3117 3117 3117 3118 3120 3121 3121 3122 3123 3124 3125 3126 3127 3129 3130 3132 3134 3135 3136
3071 3070 3070 3069 3068 3068 3067 3066 3066 3065 3065 3065 3065 3065 3064 3064 3064 3064 3064 3064 3063 3063 3063 3064 3065 3066 3067 3068 3069 3070 3071 3071 3071 3075 3084 3084 3080 3083 3086 3088 3090 3090 3093 3095 3096 3097 3098 3098 3098 3099 3100 3101 3103 3104 3105 3105 3106 3107 3107 3105 3105 3109 3111 3113 3114 3114 3115 3115 3116 3116 3117 3117 3117 3119 3120 3121 3122 3123 3123 3124 3125 3126 3128 3129 3131 3133 3134 3136
3068 3067 3067 3066 3065 3065 3064 3064 3063 3062 3062 3062 3062 3061 3061 3061 3060 3060 3060 3060 3060 3060 3060 3060 3061 3062 3063 3065 3066 3067 3068 3068 3068 3075 3080 3076 3075 3080 3083 3086 3087 3088 3091 3093 3093 3095 3095 3096 3096 3097 3098 3100 3101 3102 3102 3103 3104 3105 3105 3104 3106 3109 3111 3112 3113 3114 3114 3115 3115 3116 3116 3117 3117 3118 3119 3120 3121 3122 3123 3124 3125 3126 3127 3129 3131 3132 3134 3135
3065 3064 3064 3063 3062 3062 3061 3060 3060 3059 3059 3059 3058 3058 3058 3057 3057 3057 3057 3057 3057 3057 3057 3057 3058 3059 3060 3062 3063 3064 3066 3065 3066 3071 3073 3071 3073 3077 3080 3083 3083 3085 3088 3090 3091 3092 3093 3094 3095 3095 3096 3098 3100 3100 3100 3102 3103 3103 3102 3103 3106 3109 3110 3112 3113 3112 3114 3114 3114 3115 3116 3117 3118 3118 3119 3119 3121 3122 3123 3124 3125 3126 3127 3129 3130 3132 3133 3134
3062 3062 3061 3060 3059 3058 3058 3057 3056 3056 3055 3055 3055 3055 3055 3054 3054 3053 3053 3053 3053 3054 3054 3054 3055 3055 3057 3058 3059 3060 3062 3063 3064 3067 3068 3069 3072 3075 3078 3079 3080 3082 3084 3086 3088 3090 3091 3092 3093 3093 3095 3096 3098 3098 3099 3101 3102 3101 3101 3103 3105 3107 3109 3111 3112 3111 3112 3113 3114 3115 3115 3117 3118 3118 3118 3119 3120 3122 3123 3124 3125 3126 3127 3129 3130 3131 3133 3134
3059 3059 3058 3057 3056 3055 3054 3053 3053 3052 3052 3052 3052 3052 3051 3051 3050 3049 3049 3049 3049 3050 3050 3051 3052 3052 3053 3054 3055 3056 3057 3060 3063 3065 3066 3067 3069 3072 3075 3076 3077 3079 3081 3084 3085 3087 3089 3090 3091 3092 3093 3095 3096 3097 3099 3101 3101 3099 3100 3103 3105 3106 3108 3109 3110 3110 3110 3111 3113 3115 3115 3116 3118 3117 3117 3118 3120 3121 3123 3123 3124 3125 3127 3128 3130 3131 3132 3133
3056 3055 3054 3053 3053 3052 3051 3050 3049 3049 3048 3048 3048 3048 3047 3047 3047 3046 3046 3045 3046 3047 3047 3048 3048 3048 3050 3050 3051 3051 3051 3059 3064 3063 3064 3064 3066 3069 3071 3073 3074 3076 3079 3081 3084 3086 3087 3088 3090 3091 3092 3094 3095 3096 3098 3099 3099 3098 3099 3102 3104 3105 3107 3108 3109 3109 3109 3109 3111 3113 3114 3116 3117 3117 3117 3118 3119 3120 3122 3123 3124 3125 3126 3128 3129 3130 3132 3132
3052 3051 3051 3050 3049 3048 3047 3047 3046 3045 3045 3045 3045 3044 3044 3043 3043 3043 3042 3042 3043 3042 3043 3044 3044 3045 3046 3046 3047 3045 3050 3061 3061 3058 3060 3061 3063 3065 3068 3070 3071 3074 3076 3079 3082 3083 3084 3086 3089 3091 3091 3093 3094 3095 3097 3097 3097 3097 3099 3102 3103 3104 3106 3107 3108 3108 3108 3108 3109 3111 3113 3114 3116 3117 3117 3117 3118 3119 3120 3122 3123 3124 3125 3127 3128 3130 3131 3132
3048 3048 3047 3046 3045 3044 3044 3043 3042 3042 3041 3041 3041 3040 3040 3039 3039 3039 3039 3039 3039 3039 3040 3040 3040 3041 3041 3042 3042 3041 3050 3058 3054 3054 3057 3058 3060 3063 3064 3066 3067 3070 3073 3076 3078 3080 3082 3086 3089 3090 3090 3091 3092 3093 3095 3096 3096 3097 3099 3101 3101 3102 3104 3104 3105 3107 3107 3107 3107 3109 3111 3113 3114 3116 3116 3116 3117 3118 3120 3121 3122 3123 3124 3126 3127 3129 3130 3131
3044 3044 3043 3042 3041 3040 3040 3039 3038 3038 3037 3037 3037 3036 3036 3036 3036 3035 3035 3036 3035 3036 3036 3036 3037 3037 3037 3038 3035 3041 3051 3052 3050 3052 3054 3055 3058 3059 3061 3063 3064 3066 3069 3072 3075 3078 3082 3085 3087 3088 3088 3088 3090 3093 3094 3094 3095 3097 3098 3098 3099 3100 3101 3102 3103 3105 3106 3106 3106 3108 3110 3111 3112 3114 3115 3116 3116 3117 3119 3121 3121 3122 3123 3125 3127 3128 3130 3130
3040 3040 3039 3038 3037 3036 3036 3035 3034 3034 3034 3033 3033 3033 3032 3032 3032 3032 3032 3032 3032 3032 3032 3032 3032 3032 3033 3030 3032 3044 3048 3044 3047 3049 3049 3052 3055 3056 3059 3060 3063 3064 3066 3069 3072 3076 3080 3083 3084 3084 3086 3087 3089 3091 3092 3093 3094 3095 3096 3096 3097 3099 3099 3100 3102 3104 3105 3105 3106 3107 3108 3109 3110 3112 3113 3114 3116 3117 3118 3120 3120 3121 3122 3124 3126 3128 3129 3130
3036 3036 3035 3034 3033 3032 3032 3031 3031 3030 3030 3030 3029 3029 3029 3029 3028 3028 3028 3028 3028 3028 3028 3028 3027 3029 3027 3023 3034 3045 3039 3038 3042 3042 3045 3049 3051 3055 3057 3059 3061 3063 3065 3067 3069 3073 3077 3080 3081 3082 3085 3085 3087 3089 3089 3091 3092 3093 3094 3094 3095 3097 3096 3098 3101 3102 3104 3105 3106 3107 3106 3107 3109 3110 3111 3113 3114 3116 3117 3119 3120 3121 3122 3124 3126 3127 3129 3130
3032 3032 3031 3031 3029 3029 3028 3027 3027 3026 3026 3026 3026 3026 3025 3025 3025 3024 3025 3024 3025 3024 3024 3024 3023 3024 3019 3021 3037 3038 3031 3035 3036 3038 3043 3046 3050 3053 3055 3058 3060 3061 3064 3066 3068 3070 3073 3076 3078 3080 3082 3082 3085 3087 3088 3089 3090 3092 3093 3092 3094 3095 3094 3098 3100 3101 3103 3104 3105 3106 3105 3106 3108 3108 3110 3111 3113 3115 3116 3118 3119 3120 3121 3123 3125 3127 3128 3130
3029 3028 3028 3027 3026 3025 3025 3024 3023 3023 3023 3023 3023 3022 3022 3022 3021 3021 3021 3021 3021 3020 3020 3020 3019 3020 3015 3021 3034 3030 3028 3033 3034 3040 3044 3045 3048 3051 3054 3058 3058 3060 3062 3064 3067 3068 3069 3071 3073 3076 3078 3080 3084 3085 3086 3088 3088 3090 3090 3090 3091 3092 3093 3097 3099 3100 3102 3103 3105 3105 3105 3106 3107 3107 3109 3111 3112 3114 3116 3117 3119 3120 3121 3122 3124 3126 3128 3129
3026 3025 3025 3024 3023 3022 3022 3021 3020 3020 3020 3020 3019 3019 3019 3018 3017 3018 3018 3018 3017 3016 3017 3016 3016 3016 3013 3021 3027 3024 3027 3031 3034 3039 3040 3040 3044 3048 3052 3055 3056 3059 3060 3062 3064 3065 3066 3067 3070 3073 3076 3079 3080 3082 3084 3086 3086 3087 3088 3088 3089 3091 3093 3095 3097 3098 3100 3102 3103 3103 3104 3106 3107 3107 3108 3110 3111 3113 3115 3116 3118 3119 3121 3122 3124 3126 3127 3129
3022 3022 3022 3021 3021 3020 3019 3018 3017 3017 3017 3016 3016 3016 3016 3015 3014 3015 3014 3014 3013 3013 3013 3012 3013 3012 3013 3019 3022 3021 3024 3027 3029 3032 3032 3035 3040 3045 3049 3050 3053 3056 3058 3060 3061 3061 3062 3063 3066 3070 3073 3075 3077 3080 3082 3081 3081 3083 3084 3086 3088 3089 3091 3093 3095 3097 3099 3100 3101 3102 3103 3105 3106 3106 3107 3109 3111 3112 3114 3115 3117 3119 3120 3122 3123 3125 3126 3128
3019 3019 3018 3018 3018 3017 3017 3016 3015 3014 3014 3013 3013 3013 3013 3012 3012 3012 3011 3010 3010 3010 3009 3009 3010 3010 3011 3016 3018 3018 3019 3022 3025 3026 3028 3031 3037 3042 3044 3047 3051 3053 3056 3057 3057 3058 3059 3060 3064 3066 3068 3070 3072 3074 3074 3074 3076 3080 3082 3084 3086 3088 3089 3091 3093 3096 3098 3099 3100 3100 3101 3104 3105 3105 3106 3108 3109 3111 3113 3114 3116 3118 3120 3121 3123 3124 3125 3127
3016 3016 3015 3015 3015 3015 3014 3013 3013 3012 3011 3011 3011 3011 3010 3009 3009 3008 3007 3006 3006 3006 3007 3006 3006 3007 3009 3013 3015 3015 3015 3017 3020 3023 3025 3029 3034 3038 3040 3045 3048 3049 3052 3053 3053 3055 3056 3058 3060 3060 3061 3063 3065 3068 3069 3072 3077 3080 3082 3084 3085 3087 3088 3089 3092 3095 3097 3097 3098 3099 3100 3102 3104 3104 3105 3106 3108 3110 3111 3113 3115 3117 3119 3120 3122 3123 3124 3126
3013 3013 3012 3012 3012 3012 3012 3011 3011 3010 3009 3009 3009 3009 3007 3006 3006 3005 3003 3001 3001 3003 3004 3003 3002 3003 3007 3011 3012 3011 3012 3014 3015 3019 3022 3027 3032 3035 3038 3042 3044 3045 3047 3048 3051 3053 3054 3054 3052 3052 3055 3060 3064 3067 3070 3074 3078 3080 3082 3083 3084 3085 3086 3088 3091 3093 3095 3095 3096 3097 3098 3101 3103 3102 3103 3105 3107 3108 3110 3111 3113 3115 3117 3119 3120 3122 3123 3125
3009 3009 3009 3009 3010 3010 3009 3009 3008 3007 3007 3007 3007 3006 3004 3003 3003 3002 2999 2997 2999 3001 3000 3000 2999 3000 3004 3009 3009 3008 3010 3011 3012 3016 3019 3023 3028 3032 3034 3037 3039 3040 3042 3046 3050 3052 3052 3048 3047 3051 3056 3061 3065 3068 3071 3074 3076 3079 3080 3082 3083 3084 3085 3087 3090 3092 3094 3094 3094 3096 3097 3098 3100 3101 3102 3103 3105 3106 3108 3110 3111 3113 3116 3118 3119 3120 3122 3124
3006 3006 3006 3006 3007 3007 3006 3006 3006 3005 3005 3005 3005 3004 3003 3002 3001 2999 2997 2996 2998 2999 2997 2997 2996 2996 3001 3006 3005 3005 3006 3007 3010 3014 3016 3020 3024 3027 3030 3033 3035 3037 3041 3046 3047 3048 3047 3044 3047 3053 3058 3062 3065 3068 3071 3073 3075 3077 3078 3080 3080 3082 3084 3086 3088 3090 3092 3092 3093 3094 3094 3095 3097 3098 3100 3101 3103 3105 3107 3109 3110 3112 3115 3117 3118 3119 3120 3122
3002 3002 3003 3003 3003 3004 3004 3004 3004 3003 3003 3004 3003 3002 3002 3000 2999 2998 2998 2995 2995 2996 2995 2994 2994 2994 2998 3002 3002 3002 3002 3004 3008 3011 3014 3018 3020 3024 3028 3030 3032 3036 3040 3041 3041 3043 3042 3043 3048 3054 3057 3061 3064 3066 3069 3071 3073 3074 3076 3078 3078 3080 3083 3085 3087 3089 3090 3090 3091 3092 3092 3091 3093 3095 3096 3099 3102 3104 3106 3107 3109 3111 3114 3115 3117 3118 3119 3120
2998 2998 2999 3000 3001 3001 3001 3001 3001 3001 3002 3002 3001 3001 3000 2999 2998 2998 2998 2995 2992 2992 2992 2991 2991 2992 2994 2998 2998 2998 2999 3002 3006 3008 3011 3014 3018 3022 3025 3028 3032 3035 3036 3037 3040 3041 3041 3044 3049 3053 3056 3059 3062 3064 3066 3068 3070 3072 3074 3075 3077 3080 3082 3084 3086 3087 3088 3089 3089 3091 3090 3088 3089 3091 3093 3096 3100 3102 3104 3105 3107 3109 3112 3113 3115 3116 3118 3120
2994 2994 2995 2997 2998 2999 2999 2999 2999 2999 3000 3000 3000 3000 2999 2998 2999 2998 2998 2995 2990 2987 2989 2988 2988 2989 2990 2992 2991 2993 2996 2999 3002 3006 3009 3011 3016 3019 3022 3027 3030 3031 3033 3037 3040 3040 3042 3046 3049 3052 3054 3057 3059 3061 3063 3066 3068 3070 3071 3073 3077 3080 3081 3083 3085 3086 3087 3088 3088 3090 3090 3086 3085 3088 3090 3093 3097 3099 3102 3103 3104 3107 3109 3111 3113 3115 3117 3119
2990 2991 2992 2993 2995 2996 2995 2996 2996 2997 2997 2998 2999 2999 2999 2998 2999 2998 2998 2996 2989 2985 2986 2986 2986 2987 2987 2987 2989 2992 2995 2996 3001 3005 3007 3010 3014 3017 3021 3024 3027 3029 3033 3037 3039 3039 3041 3046 3048 3050 3052 3055 3057 3058 3061 3065 3067 3068 3069 3073 3077 3079 3080 3082 3084 3086 3087 3087 3087 3089 3090 3085 3082 3084 3087 3089 3093 3096 3098 3100 3102 3104 3107 3108 3111 3114 3116 3118
2986 2988 2989 2990 2992 2992 2992 2993 2994 2995 2995 2996 2997 2998 2998 2998 2998 2998 2998 2996 2989 2984 2984 2984 2985 2985 2985 2987 2988 2991 2993 2995 3000 3003 3004 3008 3013 3016 3019 3021 3024 3028 3032 3036 3037 3035 3038 3044 3046 3048 3051 3053 3054 3055 3059 3063 3065 3065 3068 3074 3077 3077 3079 3081 3084 3086 3086 3086 3086 3086 3088 3086 3081 3081 3083 3086 3089 3092 3095 3097 3099 3102 3105 3107 3110 3113 3115 3117
2982 2984 2985 2987 2988 2989 2989 2990 2992 2992 2993 2994 2995 2996 2997 2998 2999 2998 2999 2997 2989 2984 2984 2984 2984 2984 2984 2985 2986 2990 2993 2995 2998 3000 3003 3008 3011 3014 3017 3019 3023 3027 3031 3033 3032 3032 3037 3041 3043 3046 3049 3049 3050 3053 3058 3062 3064 3065 3069 3074 3076 3077 3079 3081 3083 3085 3085 3086 3083 3082 3086 3086 3080 3078 3081 3083 3085 3088 3091 3093 3095 3099 3103 3105 3108 3112 3113 3115
2978 2980 2982 2983 2985 2986 2986 2988 2989 2989 2990 2992 2994 2995 2996 2998 2998 2998 3000 2997 2987 2983 2985 2984 2984 2984 2984 2984 2986 2990 2994 2995 2997 3000 3004 3007 3010 3012 3015 3018 3023 3028 3030 3031 3031 3034 3038 3040 3043 3046 3046 3046 3049 3054 3058 3061 3063 3066 3070 3074 3076 3077 3078 3081 3083 3083 3085 3084 3079 3078 3083 3084 3079 3075 3078 3080 3081 3083 3087 3090 3093 3097 3101 3103 3107 3110 3112 3114
2974 2976 2978 2979 2981 2983 2984 2986 2987 2986 2988 2990 2992 2994 2996 2997 2997 2998 2999 2993 2985 2984 2985 2984 2985 2984 2984 2984 2986 2991 2995 2996 2997 3000 3004 3006 3009 3012 3015 3020 3025 3028 3030 3030 3031 3035 3038 3040 3043 3044 3044 3046 3050 3055 3057 3060 3064 3067 3070 3073 3075 3076 3077 3080 3081 3082 3084 3079 3073 3075 3080 3082 3079 3074 3076 3078 3078 3081 3085 3088 3092 3095 3099 3102 3105 3108 3110 3113
2971 2972 2975 2977 2978 2980 2982 2983 2984 2984 2986 2988 2990 2993 2995 2996 2997 2997 2995 2987 2983 2985 2984 2984 2985 2984 2984 2984 2985 2989 2994 2995 2997 3000 3003 3005 3008 3012 3015 3019 3023 3026 3028 3028 3030 3034 3037 3039 3040 3040 3043 3047 3051 3054 3056 3060 3063 3066 3068 3071 3074 3075 3076 3079 3079 3081 3081 3074 3069 3074 3078 3080 3078 3073 3074 3075 3077 3080 3082 3085 3089 3092 3096 3099 3103 3106 3108 3111
2968 2969 2971 2974 2975 2977 2979 2981 2981 2983 2984 2986 2989 2991 2993 2995 2995 2992 2987 2983 2984 2985 2984 2984 2984 2984 2984 2985 2986 2989 2992 2995 2996 2999 3002 3004 3006 3008 3012 3014 3017 3020 3022 3024 3028 3032 3035 3036 3037 3039 3042 3045 3048 3051 3054 3058 3061 3063 3066 3069 3071 3073 3075 3077 3077 3077 3076 3070 3069 3073 3075 3076 3074 3073 3073 3074 3076 3079 3081 3084 3088 3090 3093 3097 3100 3104 3106 3109
2965 2966 2968 2971 2973 2975 2977 2979 2979 2981 2982 2985 2988 2990 2992 2993 2990 2986 2984 2983 2984 2983 2983 2983 2983 2983 2984 2985 2987 2989 2992 2995 2997 2999 3001 3003 3005 3008 3011 3013 3015 3017 3019 3022 3027 3030 3033 3035 3036 3037 3039 3042 3044 3047 3049 3053 3056 3059 3062 3065 3067 3069 3072 3074 3074 3074 3072 3068 3068 3072 3073 3072 3071 3071 3073 3073 3075 3077 3080 3083 3087 3089 3092 3095 3099 3102 3104 3106
2963 2964 2967 2969 2971 2973 2975 2977 2977 2979 2981 2983 2986 2988 2989 2989 2986 2984 2984 2984 2983 2982 2982 2982 2982 2983 2983 2984 2986 2989 2991 2994 2997 2999 3001 3003 3005 3007 3010 3012 3015 3017 3019 3022 3025 3027 3029 3030 3030 3033 3036 3038 3041 3043 3046 3051 3054 3056 3059 3063 3064 3064 3066 3069 3070 3071 3070 3069 3068 3070 3071 3069 3068 3069 3071 3072 3073 3075 3078 3081 3085 3088 3091 3095 3097 3100 3102 3104
2961 2962 2965 2968 2970 2972 2974 2975 2975 2977 2980 2982 2984 2985 2985 2984 2984 2984 2984 2984 2983 2982 2981 2982 2982 2983 2983 2984 2987 2989 2991 2994 2996 2998 3000 3002 3004 3005 3008 3010 3013 3016 3018 3020 3023 3025 3027 3026 3027 3032 3034 3036 3040 3043 3046 3051 3052 3054 3058 3061 3060 3059 3063 3066 3067 3067 3068 3068 3068 3067 3067 3066 3067 3068 3070 3071 3072 3074 3076 3079 3082 3086 3090 3093 3095 3097 3100 3102
2960 2962 2964 2967 2968 2970 2972 2972 2974 2977 2979 2981 2983 2982 2981 2982 2983 2984 2983 2983 2982 2981 2980 2981 2982 2982 2983 2985 2986 2988 2991 2993 2996 2997 2999 3001 3003 3005 3007 3009 3011 3014 3016 3018 3021 3023 3025 3026 3028 3032 3033 3035 3039 3041 3044 3047 3049 3052 3054 3054 3054 3060 3065 3065 3064 3065 3066 3067 3066 3065 3065 3065 3067 3068 3069 3070 3071 3073 3075 3078 3081 3085 3088 3091 3094 3096 3098 3100
2961 2963 2965 2967 2967 2968 2969 2971 2974 2976 2978 2980 2980 2979 2979 2981 2983 2983 2982 2982 2982 2981 2981 2981 2982 2982 2983 2985 2986 2988 2990 2992 2994 2996 2998 3000 3001 3003 3006 3008 3011 3013 3016 3018 3021 3022 3024 3025 3027 3030 3032 3034 3037 3041 3043 3045 3047 3049 3049 3050 3056 3063 3065 3063 3063 3064 3065 3065 3065 3065 3065 3065 3066 3067 3067 3069 3070 3072 3075 3078 3081 3084 3087 3090 3093 3095 3097 3099
2964 2965 2966 2966 2967 2967 2969 2971 2973 2975 2977 2978 2978 2978 2980 2981 2982 2982 2982 2981 2982 2982 2982 2983 2983 2983 2984 2985 2986 2987 2989 2991 2993 2995 2997 2999 3000 3001 3004 3007 3010 3012 3015 3019 3020 3022 3024 3025 3026 3028 3031 3033 3036 3039 3041 3042 3045 3047 3048 3051 3056 3059 3059 3059 3061 3061 3062 3064 3066 3066 3065 3065 3065 3065 3065 3067 3069 3071 3074 3077 3081 3084 3087 3089 3091 3094 3096 3099
2966 2966 2966 2966 2967 2968 2969 2971 2972 2974 2975 2976 2977 2978 2979 2979 2981 2982 2982 2982 2982 2982 2982 2983 2984 2984 2984 2985 2986 2987 2989 2991 2992 2994 2996 2998 2999 3001 3003 3006 3009 3011 3015 3017 3019 3021 3023 3024 3024 3025 3029 3033 3035 3035 3035 3038 3041 3045 3048 3050 3052 3053 3054 3055 3057 3057 3058 3062 3065 3066 3066 3064 3062 3063 3064 3066 3069 3070 3072 3076 3079 3083 3086 3088 3090 3092 3095 3097
2968 2967 2966 2966 2967 2968 2969 2970 2971 2973 2974 2975 2976 2978 2978 2979 2981 2983 2982 2982 2983 2983 2983 2983 2984 2984 2984 2985 2986 2987 2989 2991 2992 2994 2996 2997 2999 3000 3002 3005 3008 3010 3014 3017 3019 3020 3022 3023 3023 3024 3027 3030 3031 3031 3032 3035 3038 3040 3043 3045 3047 3049 3052 3054 3055 3054 3054 3058 3062 3065 3065 3061 3060 3062 3064 3065 3068 3070 3072 3074 3078 3081 3084 3087 3089 3091 3093 3095
2968 2968 2967 2967 2967 2968 2969 2969 2970 2972 2973 2975 2976 2977 2979 2980 2981 2982 2982 2982 2982 2983 2983 2983 2984 2984 2984 2985 2986 2987 2988 2990 2992 2994 2995 2996 2998 2999 3001 3003 3006 3009 3012 3014 3016 3018 3020 3021 3022 3023 3025 3027 3028 3029 3031 3034 3036 3038 3040 3041 3044 3046 3049 3051 3052 3052 3052 3054 3057 3060 3060 3058 3058 3061 3062 3064 3067 3069 3072 3074 3077 3080 3083 3085 3087 3090 3092 3094
2970 2969 2968 2968 2968 2968 2969 2969 2971 2972 2973 2975 2976 2978 2980 2980 2980 2981 2981 2981 2981 2982 2983 2983 2984 2985 2985 2985 2986 2987 2988 2990 2991 2993 2995 2996 2997 2998 3000 3003 3005 3007 3010 3011 3014 3017 3019 3021 3022 3023 3024 3026 3028 3029 3031 3032 3034 3037 3038 3040 3043 3044 3046 3047 3048 3049 3051 3053 3054 3056 3056 3056 3057 3059 3061 3063 3066 3068 3071 3074 3076 3079 3081 3084 3086 3089 3091 3093
2970 2969 2969 2968 2968 2968 2969 2970 2971 2972 2974 2975 2977 2978 2979 2979 2979 2980 2981 2981 2981 2982 2982 2983 2984 2984 2985 2986 2987 2987 2988 2989 2991 2992 2994 2996 2996 2998 3000 3002 3004 3006 3008 3010 3012 3016 3019 3020 3021 3022 3023 3025 3027 3028 3030 3031 3032 3034 3036 3037 3040 3041 3043 3045 3047 3048 3049 3051 3052 3054 3055 3055 3057 3058 3060 3062 3065 3067 3070 3072 3075 3077 3080 3083 3085 3087 3089 3091
2970 2969 2969 2968 2967 2967 2968 2970 2971 2972 2974 2975 2976 2977 2978 2978 2979 2980 2980 2981 2981 2981 2982 2983 2983 2983 2984 2986 2987 2987 2988 2989 2990 2992 2993 2995 2996 2996 2998 3000 3001 3003 3005 3007 3010 3013 3016 3017 3019 3021 3022 3024 3025 3027 3028 3029 3030 3031 3033 3035 3037 3040 3042 3044 3046 3047 3047 3048 3050 3052 3053 3054 3056 3058 3059 3061 3063 3066 3069 3071 3074 3076 3079 3081 3083 3086 3087 3089
2970 2969 2969 2967 2966 2966 2968 2969 2971 2972 2974 2975 2976 2977 2978 2978 2979 2979 2980 2980 2980 2981 2981 2982 2983 2983 2984 2986 2987 2987 2988 2989 2990 2992 2993 2994 2995 2996 2996 2997 2999 3001 3003 3006 3009 3012 3014 3015 3017 3020 3021 3023 3024 3025 3025 3026 3028 3030 3031 3033 3035 3038 3039 3041 3043 3044 3045 3046 3047 3048 3050 3052 3054 3057 3059 3060 3062 3065 3068 3071 3073 3076 3077 3079 3081 3084 3086 3088
2971 2970 2969 2967 2966 2966 2968 2970 2971 2973 2975 2976 2976 2977 2978 2978 2979 2979 2979 2979 2979 2980 2981 2982 2983 2983 2983 2985 2987 2987 2987 2989 2990 2992 2993 2993 2994 2995 2996 2996 2997 2999 3001 3005 3009 3011 3013 3014 3016 3018 3020 3022 3023 3023 3024 3026 3027 3028 3029 3031 3033 3035 3037 3039 3040 3041 3043 3045 3046 3046 3048 3050 3052 3055 3057 3059 3060 3063 3066 3069 3072 3075 3076 3078 3080 3082 3084 3086
2971 2970 2969 2969 2968 2969 2969 2971 2972 2973 2975 2976 2976 2977 2978 2978 2979 2979 2979 2979 2979 2979 2980 2981 2982 2983 2983 2985 2986 2987 2988 2989 2990 2991 2993 2994 2994 2994 2995 2996 2996 2998 3001 3004 3007 3009 3011 3013 3015 3018 3020 3022 3023 3024 3025 3026 3026 3027 3028 3030 3031 3033 3035 3037 3038 3039 3041 3043 3044 3045 3047 3048 3049 3052 3054 3056 3059 3061 3064 3066 3069 3072 3074 3077 3079 3081 3083 3085
2972 2971 2970 2970 2970 2970 2971 2972 2973 2974 2975 2976 2976 2977 2978 2978 2979 2979 2979 2979 2980 2980 2980 2981 2982 2983 2984 2985 2986 2987 2988 2988 2989 2991 2992 2993 2993 2994 2995 2996 2997 2999 3001 3004 3006 3007 3009 3011 3014 3016 3019 3021 3022 3023 3024 3025 3025 3026 3027 3029 3030 3032 3034 3035 3037 3038 3040 3041 3043 3045 3046 3047 3048 3051 3053 3055 3057 3059 3061 3064 3067 3070 3073 3075 3077 3079 3081 3083
2973 2972 2971 2970 2969 2969 2970 2971 2972 2974 2975 2976 2976 2977 2978 2978 2978 2979 2979 2979 2979 2979 2980 2981 2983 2983 2984 2985 2987 2988 2988 2988 2989 2990 2991 2992 2993 2994 2995 2997 2998 2999 3001 3003 3004 3006 3008 3010 3012 3015 3017 3019 3021 3022 3023 3024 3024 3025 3026 3028 3029 3031 3033 3034 3036 3037 3039 3040 3042 3044 3045 3046 3048 3050 3052 3054 3056 3058 3061 3064 3067 3069 3072 3074 3076 3079 3081 3082
2973 2972 2971 2969 2969 2969 2970 2971 2972 2974 2975 2976 2977 2977 2977 2978 2979 2979 2979 2979 2979 2979 2980 2981 2982 2983 2984 2986 2986 2987 2987 2988 2989 2989 2990 2991 2992 2993 2995 2997 2999 3000 3001 3002 3004 3005 3007 3009 3011 3013 3016 3018 3020 3021 3022 3023 3023 3025 3026 3027 3028 3030 3031 3033 3035 3036 3037 3039 3041 3043 3044 3045 3047 3049 3052 3054 3056 3058 3061 3064 3066 3068 3071 3073 3076 3078 3080 3082
2974 2973 2972 2970 2970 2970 2971 2972 2973 2974 2975 2976 2977 2977 2977 2978 2979 2979 2979 2979 2979 2979 2980 2981 2981 2982 2984 2985 2986 2986 2987 2988 2989 2989 2990 2991 2992 2993 2995 2997 2998 2999 3000 3002 3003 3005 3006 3008 3010 3013 3015 3017 3019 3020 3021 3022 3023 3024 3025 3026 3027 3029 3030 3031 3033 3035 3036 3038 3040 3042 3043 3044 3046 3048 3051 3053 3056 3058 3060 3062 3065 3067 3070 3073 3075 3078 3080 3081
2974 2973 2972 2971 2971 2972 2972 2973 2974 2975 2976 2976 2977 2977 2977 2978 2979 2979 2979 2979 2979 2979 2980 2980 2981 2982 2983 2984 2985 2985 2986 2987 2988 2989 2990 2991 2992 2993 2995 2996 2998 2999 3000 3001 3003 3005 3006 3007 3009 3012 3014 3016 3018 3019 3021 3021 3022 3023 3023 3025 3027 3028 3029 3030 3031 3033 3035 3037 3038 3041 3043 3044 3046 3047 3049 3051 3054 3057 3059 3061 3063 3066 3068 3071 3074 3076 3078 3079